| time (UTC) | temp F | wind direction | speed MPH | gust MPH | rain 1hr in | rain 24hr in | rain mn in | humidity % | barometer mb |
| 20260905191224 | 64 | 301 | 0.0 | 2.0 | 0.00 | 0.00 | 0.01 | 75 | 1016.7 |
| 20260905190724 | 64 | 301 | 0.0 | 2.0 | 0.00 | 0.00 | 0.01 | 76 | 1016.7 |
| 20260905190224 | 64 | 301 | 2.0 | 2.0 | 0.00 | 0.00 | 0.01 | 75 | 1016.6 |
| 20260905185524 | 64 | 301 | 0.0 | 2.0 | 0.00 | 0.00 | 0.01 | 75 | 1016.7 |
| 20260905185025 | 64 | 301 | 1.0 | 2.0 | 0.00 | 0.00 | 0.01 | 75 | 1016.6 |
| 20260905184325 | 64 | 340 | 0.0 | 3.0 | 0.00 | 0.00 | 0.01 | 76 | 1016.6 |
| 20260905183824 | 64 | 13 | 0.0 | 3.0 | 0.00 | 0.00 | 0.01 | 76 | 1016.7 |
| 20260905183324 | 64 | 316 | 2.0 | 3.0 | 0.00 | 0.00 | 0.01 | 76 | 1016.7 |
| 20260905182424 | 65 | 29 | 2.0 | 3.0 | 0.00 | 0.00 | 0.01 | 73 | 1016.8 |
| 20260905181925 | 65 | 64 | 1.0 | 4.0 | 0.00 | 0.00 | 0.01 | 76 | 1016.8 |
| 20260905181425 | 65 | 84 | 3.0 | 4.0 | 0.00 | 0.00 | 0.01 | 78 | 1016.9 |
| 20260905180925 | 64 | 161 | 2.0 | 4.0 | 0.00 | 0.00 | 0.01 | 78 | 1016.9 |
| 20260905180424 | 63 | 293 | 2.0 | 4.0 | 0.00 | 0.00 | 0.01 | 83 | 1016.9 |
| 20260905175925 | 63 | 215 | 1.0 | 4.0 | 0.00 | 0.00 | 0.01 | 82 | 1017.0 |
| 20260905175226 | 64 | 181 | 1.0 | 7.0 | 0.00 | 0.00 | 0.01 | 83 | 1017.0 |
| 20260905174724 | 64 | 87 | 0.0 | 7.0 | 0.00 | 0.00 | 0.01 | 82 | 1017.0 |
| 20260905174225 | 62 | 74 | 7.0 | 7.0 | 0.00 | 0.00 | 0.01 | 85 | 1016.9 |
| 20260905173724 | 62 | 314 | 3.0 | 3.0 | 0.00 | 0.00 | 0.01 | 84 | 1017.0 |
| 20260905173224 | 62 | 14 | 3.0 | 3.0 | 0.00 | 0.00 | 0.01 | 88 | 1017.0 |
| 20260905172724 | 61 | 266 | 2.0 | 2.0 | 0.00 | 0.00 | 0.01 | 90 | 1017.0 |
| 20260905172224 | 61 | 267 | 2.0 | 3.0 | 0.00 | 0.00 | 0.01 | 91 | 1017.0 |
| 20260905171724 | 60 | 288 | 2.0 | 3.0 | 0.00 | 0.00 | 0.01 | 92 | 1016.9 |
| 20260905171225 | 59 | 315 | 2.0 | 2.0 | 0.00 | 0.00 | 0.01 | 95 | 1016.9 |
| 20260905170725 | 59 | 223 | 1.0 | 3.0 | 0.00 | 0.00 | 0.01 | 95 | 1017.0 |
| 20260905170225 | 58 | 217 | 1.0 | 4.0 | 0.00 | 0.00 | 0.01 | 95 | 1017.2 |
| 20260905165726 | 58 | 217 | 1.0 | 4.0 | 0.00 | 0.00 | 0.01 | 98 | 1017.2 |
| 20260905165224 | 58 | 228 | 4.0 | 4.0 | 0.00 | 0.00 | 0.01 | 99 | 1017.2 |
| 20260905164725 | 57 | 261 | 0.0 | 2.0 | 0.00 | 0.00 | 0.01 | 100 | 1017.1 |
| 20260905164224 | 56 | 273 | 2.0 | 2.0 | 0.00 | 0.00 | 0.01 | 100 | 1017.2 |
| 20260905163725 | 56 | 273 | 1.0 | 2.0 | 0.00 | 0.00 | 0.01 | 100 | 1017.1 |
| 20260905163225 | 56 | 291 | 2.0 | 2.0 | 0.00 | 0.00 | 0.01 | 100 | 1017.1 |
| 20260905162725 | 55 | 291 | 2.0 | 2.0 | 0.00 | 0.00 | 0.01 | 100 | 1017.1 |
| 20260905161624 | 53 | 288 | 1.0 | 1.0 | 0.00 | 0.00 | 0.01 | 100 | 1017.1 |
| 20260905160924 | 53 | 288 | 0.0 | 1.0 | 0.00 | 0.00 | 0.01 | 100 | 1017.1 |
| 20260905160424 | 53 | 321 | 0.0 | 1.0 | 0.00 | 0.00 | 0.01 | 100 | 1017.2 |
| 20260905155925 | 53 | 321 | 1.0 | 2.0 | 0.00 | 0.00 | 0.01 | 100 | 1017.2 |
| 20260905155425 | 52 | 321 | 0.0 | 2.0 | 0.00 | 0.00 | 0.01 | 100 | 1017.2 |
| 20260905154925 | 52 | 355 | 1.0 | 2.0 | 0.00 | 0.00 | 0.01 | 100 | 1017.3 |
| 20260905154424 | 51 | 355 | 0.0 | 2.0 | 0.00 | 0.00 | 0.01 | 100 | 1017.3 |
| 20260905153924 | 50 | 355 | 1.0 | 1.0 | 0.00 | 0.00 | 0.01 | 100 | 1017.3 |
| 20260905153424 | 50 | 355 | 0.0 | 0.0 | 0.00 | 0.00 | 0.01 | 100 | 1017.3 |
| 20260905152924 | 50 | 355 | 0.0 | 1.0 | 0.00 | 0.00 | 0.01 | 100 | 1017.5 |
| 20260905152424 | 50 | 355 | 0.0 | 1.0 | 0.00 | 0.00 | 0.01 | 100 | 1017.5 |
| 20260905151924 | 50 | 355 | 0.0 | 1.0 | 0.00 | 0.00 | 0.01 | 100 | 1017.4 |
| 20260905151424 | 50 | 355 | 1.0 | 1.0 | 0.00 | 0.00 | 0.01 | 100 | 1017.4 |
| 20260905150924 | 49 | 355 | 0.0 | 1.0 | 0.00 | 0.00 | 0.01 | 100 | 1017.5 |
| 20260905150424 | 49 | 355 | 1.0 | 1.0 | 0.00 | 0.00 | 0.01 | 100 | 1017.5 |
| 20260905145925 | 49 | 355 | 0.0 | 1.0 | 0.00 | 0.00 | 0.01 | 100 | 1017.4 |
| 20260905145425 | 48 | 355 | 0.0 | 1.0 | 0.00 | 0.00 | 0.01 | 100 | 1017.4 |
| 20260905144724 | 48 | 355 | 0.0 | 1.0 | 0.00 | 0.00 | 0.01 | 100 | 1017.3 |
| 20260905144224 | 48 | 355 | 1.0 | 1.0 | 0.00 | 0.00 | 0.01 | 100 | 1017.3 |
| 20260905143725 | 48 | 355 | 0.0 | 1.0 | 0.00 | 0.00 | 0.01 | 100 | 1017.2 |
| 20260905143225 | 48 | 355 | 0.0 | 1.0 | 0.00 | 0.00 | 0.01 | 100 | 1017.3 |
| 20260905142724 | 48 | 355 | 1.0 | 1.0 | 0.00 | 0.00 | 0.01 | 100 | 1017.2 |
| 20260905142224 | 48 | 355 | 0.0 | 1.0 | 0.00 | 0.00 | 0.01 | 100 | 1017.3 |
| 20260905141724 | 48 | 355 | 0.0 | 1.0 | 0.00 | 0.00 | 0.01 | 100 | 1017.1 |
| 20260905141225 | 48 | 355 | 0.0 | 0.0 | 0.00 | 0.00 | 0.01 | 100 | 1017.0 |
| 20260905140724 | 48 | 355 | 0.0 | 0.0 | 0.00 | 0.00 | 0.01 | 100 | 1017.0 |
| 20260905140225 | 48 | 355 | 0.0 | 0.0 | 0.00 | 0.00 | 0.01 | 100 | 1017.0 |
| 20260905135725 | 48 | 355 | 0.0 | 1.0 | 0.00 | 0.00 | 0.01 | 100 | 1017.0 |
| 20260905135224 | 48 | 355 | 0.0 | 1.0 | 0.00 | 0.00 | 0.01 | 100 | 1017.0 |
| 20260905134724 | 48 | 355 | 0.0 | 0.0 | 0.00 | 0.00 | 0.01 | 100 | 1016.9 |
| 20260905134224 | 48 | 355 | 0.0 | 1.0 | 0.00 | 0.00 | 0.01 | 100 | 1017.0 |
| 20260905133724 | 48 | 355 | 0.0 | 2.0 | 0.00 | 0.00 | 0.01 | 100 | 1017.0 |
| 20260905133224 | 48 | 355 | 0.0 | 2.0 | 0.00 | 0.00 | 0.01 | 100 | 1016.9 |
| 20260905132724 | 48 | 355 | 1.0 | 2.0 | 0.00 | 0.00 | 0.01 | 100 | 1016.9 |
| 20260905132224 | 48 | 355 | 1.0 | 2.0 | 0.00 | 0.00 | 0.01 | 100 | 1016.9 |
| 20260905131724 | 48 | 355 | 1.0 | 1.0 | 0.00 | 0.00 | 0.01 | 100 | 1016.9 |
| 20260905131225 | 48 | 355 | 1.0 | 1.0 | 0.00 | 0.00 | 0.01 | 100 | 1017.0 |
| 20260905130725 | 48 | 355 | 1.0 | 1.0 | 0.00 | 0.00 | 0.01 | 100 | 1016.9 |
| 20260905130225 | 48 | 355 | 1.0 | 1.0 | 0.00 | 0.00 | 0.01 | 100 | 1016.9 |
| 20260905125724 | 48 | 355 | 0.0 | 2.0 | 0.00 | 0.00 | 0.01 | 100 | 1017.0 |
| 20260905125224 | 48 | 355 | 1.0 | 2.0 | 0.00 | 0.00 | 0.01 | 100 | 1017.0 |
| 20260905124724 | 48 | 355 | 2.0 | 2.0 | 0.00 | 0.00 | 0.01 | 100 | 1017.0 |
| 20260905124224 | 48 | 355 | 2.0 | 2.0 | 0.00 | 0.00 | 0.01 | 100 | 1016.9 |
| 20260905123524 | 48 | 355 | 0.0 | 0.0 | 0.00 | 0.00 | 0.01 | 100 | 1016.9 |
| 20260905123024 | 48 | 355 | 0.0 | 0.0 | 0.00 | 0.00 | 0.01 | 100 | 1016.8 |
| 20260905122524 | 48 | 355 | 0.0 | 0.0 | 0.00 | 0.00 | 0.01 | 100 | 1016.7 |
| 20260905122024 | 48 | 355 | 0.0 | 0.0 | 0.00 | 0.00 | 0.01 | 100 | 1016.8 |
| 20260905121325 | 48 | 355 | 0.0 | 0.0 | 0.00 | 0.00 | 0.01 | 100 | 1016.8 |
| 20260905120824 | 48 | 355 | 0.0 | 0.0 | 0.00 | 0.00 | 0.01 | 100 | 1016.7 |
| 20260905120325 | 48 | 355 | 0.0 | 0.0 | 0.00 | 0.00 | 0.01 | 100 | 1016.7 |
| 20260905115824 | 48 | 355 | 0.0 | 0.0 | 0.00 | 0.00 | 0.01 | 100 | 1016.7 |
| 20260905115324 | 48 | 355 | 0.0 | 0.0 | 0.00 | 0.00 | 0.01 | 100 | 1016.6 |
| 20260905114825 | 48 | 355 | 0.0 | 1.0 | 0.00 | 0.00 | 0.01 | 100 | 1016.6 |
| 20260905114325 | 48 | 355 | 0.0 | 1.0 | 0.00 | 0.00 | 0.01 | 99 | 1016.6 |
| 20260905113825 | 48 | 355 | 0.0 | 1.0 | 0.00 | 0.00 | 0.01 | 99 | 1016.5 |
| 20260905113324 | 48 | 355 | 1.0 | 2.0 | 0.00 | 0.00 | 0.01 | 99 | 1016.6 |
| 20260905112825 | 48 | 355 | 0.0 | 2.0 | 0.00 | 0.00 | 0.01 | 99 | 1016.5 |
| 20260905112325 | 48 | 355 | 1.0 | 2.0 | 0.00 | 0.00 | 0.01 | 99 | 1016.6 |
| 20260905111824 | 48 | 355 | 0.0 | 2.0 | 0.00 | 0.00 | 0.01 | 100 | 1016.5 |
| 20260905111325 | 48 | 355 | 0.0 | 2.0 | 0.00 | 0.00 | 0.01 | 100 | 1016.6 |
| 20260905110624 | 48 | 355 | 1.0 | 3.0 | 0.00 | 0.00 | 0.01 | 100 | 1016.5 |
| 20260905110125 | 48 | 355 | 2.0 | 3.0 | 0.00 | 0.00 | 0.01 | 100 | 1016.6 |
| 20260905105624 | 48 | 227 | 2.0 | 2.0 | 0.00 | 0.00 | 0.01 | 100 | 1016.5 |
| 20260905105124 | 48 | 227 | 2.0 | 2.0 | 0.00 | 0.00 | 0.01 | 100 | 1016.5 |
| 20260905104625 | 48 | 227 | 0.0 | 1.0 | 0.00 | 0.00 | 0.00 | 99 | 1016.6 |
| 20260905104124 | 48 | 227 | 1.0 | 1.0 | 0.00 | 0.00 | 0.00 | 100 | 1016.6 |
| 20260905103625 | 48 | 227 | 0.0 | 1.0 | 0.00 | 0.00 | 0.00 | 99 | 1016.6 |
| 20260905103125 | 48 | 227 | 0.0 | 0.0 | 0.00 | 0.00 | 0.00 | 99 | 1016.6 |
| 20260905102624 | 48 | 227 | 0.0 | 0.0 | 0.00 | 0.00 | 0.00 | 100 | 1016.6 |
| 20260905102125 | 48 | 227 | 0.0 | 1.0 | 0.00 | 0.00 | 0.00 | 100 | 1016.6 |
| 20260905101624 | 48 | 227 | 0.0 | 1.0 | 0.00 | 0.00 | 0.00 | 100 | 1016.6 |
| 20260905101125 | 48 | 227 | 0.0 | 1.0 | 0.00 | 0.00 | 0.00 | 99 | 1016.6 |
| 20260905100624 | 48 | 227 | 1.0 | 1.0 | 0.00 | 0.00 | 0.00 | 99 | 1016.5 |
| 20260905100124 | 48 | 227 | 0.0 | 0.0 | 0.00 | 0.00 | 0.00 | 99 | 1016.5 |
| 20260905095624 | 48 | 227 | 0.0 | 0.0 | 0.00 | 0.00 | 0.00 | 99 | 1016.6 |
| 20260905095125 | 48 | 227 | 0.0 | 1.0 | 0.00 | 0.00 | 0.00 | 99 | 1016.6 |
| 20260905094624 | 48 | 227 | 0.0 | 1.0 | 0.00 | 0.00 | 0.00 | 99 | 1016.6 |
| 20260905094125 | 48 | 227 | 0.0 | 1.0 | 0.00 | 0.00 | 0.00 | 99 | 1016.6 |
| 20260905093425 | 48 | 227 | 1.0 | 1.0 | 0.00 | 0.00 | 0.00 | 99 | 1016.6 |
| 20260905092924 | 48 | 227 | 0.0 | 0.0 | 0.00 | 0.00 | 0.00 | 99 | 1016.5 |
| 20260905092424 | 48 | 227 | 0.0 | 1.0 | 0.00 | 0.00 | 0.00 | 99 | 1016.5 |
| 20260905091925 | 48 | 227 | 0.0 | 1.0 | 0.00 | 0.00 | 0.00 | 99 | 1016.6 |
| 20260905091425 | 48 | 227 | 0.0 | 1.0 | 0.00 | 0.00 | 0.00 | 99 | 1016.6 |
| 20260905090924 | 48 | 227 | 1.0 | 1.0 | 0.00 | 0.00 | 0.00 | 99 | 1016.5 |
| 20260905090424 | 48 | 227 | 1.0 | 2.0 | 0.00 | 0.00 | 0.00 | 99 | 1016.5 |
| 20260905085924 | 48 | 227 | 1.0 | 2.0 | 0.00 | 0.00 | 0.00 | 99 | 1016.5 |
| 20260905085425 | 48 | 227 | 1.0 | 2.0 | 0.00 | 0.00 | 0.00 | 99 | 1016.5 |
| 20260905084924 | 48 | 227 | 1.0 | 2.0 | 0.00 | 0.00 | 0.00 | 99 | 1016.4 |
| 20260905084424 | 48 | 227 | 1.0 | 2.0 | 0.00 | 0.00 | 0.00 | 99 | 1016.4 |
| 20260905083924 | 48 | 227 | 1.0 | 2.0 | 0.00 | 0.00 | 0.00 | 99 | 1016.3 |
| 20260905083424 | 49 | 227 | 1.0 | 1.0 | 0.00 | 0.00 | 0.00 | 99 | 1016.3 |
| 20260905082924 | 49 | 227 | 1.0 | 1.0 | 0.00 | 0.00 | 0.00 | 99 | 1016.4 |
| 20260905082224 | 49 | 227 | 0.0 | 2.0 | 0.00 | 0.00 | 0.00 | 99 | 1016.3 |
| 20260905081724 | 49 | 227 | 1.0 | 2.0 | 0.00 | 0.00 | 0.00 | 99 | 1016.2 |
| 20260905081224 | 49 | 227 | 1.0 | 2.0 | 0.00 | 0.00 | 0.00 | 99 | 1016.2 |
| 20260905080724 | 49 | 226 | 1.0 | 2.0 | 0.00 | 0.00 | 0.00 | 99 | 1016.2 |
| 20260905080224 | 49 | 226 | 1.0 | 2.0 | 0.00 | 0.00 | 0.00 | 99 | 1016.1 |
| 20260905075724 | 49 | 226 | 1.0 | 2.0 | 0.00 | 0.00 | 0.00 | 99 | 1016.2 |
| 20260905075224 | 49 | 226 | 0.0 | 1.0 | 0.00 | 0.00 | 0.00 | 99 | 1016.1 |
| 20260905074725 | 49 | 226 | 1.0 | 1.0 | 0.00 | 0.00 | 0.00 | 99 | 1016.0 |
| 20260905074225 | 49 | 226 | 1.0 | 1.0 | 0.00 | 0.00 | 0.00 | 99 | 1016.0 |
| 20260905073724 | 49 | 226 | 1.0 | 1.0 | 0.00 | 0.00 | 0.00 | 99 | 1016.0 |
| 20260905073226 | 49 | 226 | 0.0 | 1.0 | 0.00 | 0.00 | 0.00 | 99 | 1015.9 |
| 20260905072725 | 50 | 226 | 1.0 | 1.0 | 0.00 | 0.00 | 0.00 | 99 | 1015.8 |
| 20260905072225 | 50 | 226 | 0.0 | 0.0 | 0.00 | 0.00 | 0.00 | 99 | 1015.7 |
| 20260905071629 | 50 | 226 | 0.0 | 1.0 | 0.00 | 0.00 | 0.00 | 99 | 1015.7 |
| 20260905070925 | 50 | 226 | 1.0 | 1.0 | 0.00 | 0.00 | 0.00 | 99 | 1015.7 |
| 20260905070425 | 50 | 226 | 0.0 | 1.0 | 0.00 | 0.00 | 0.00 | 99 | 1015.7 |
| 20260905065725 | 50 | 226 | 0.0 | 1.0 | 0.00 | 0.00 | 0.11 | 99 | 1015.8 |
| 20260905065225 | 50 | 226 | 1.0 | 2.0 | 0.00 | 0.00 | 0.11 | 99 | 1015.7 |
| 20260905064724 | 50 | 226 | 1.0 | 2.0 | 0.00 | 0.00 | 0.11 | 99 | 1015.7 |
| 20260905064225 | 50 | 225 | 2.0 | 2.0 | 0.00 | 0.00 | 0.11 | 99 | 1015.7 |
| 20260905063724 | 50 | 225 | 2.0 | 2.0 | 0.00 | 0.00 | 0.11 | 99 | 1015.7 |
| 20260905063225 | 50 | 225 | 1.0 | 1.0 | 0.00 | 0.00 | 0.11 | 98 | 1015.7 |
| 20260905062524 | 50 | 225 | 1.0 | 1.0 | 0.00 | 0.00 | 0.11 | 99 | 1015.7 |
| 20260905062025 | 50 | 225 | 1.0 | 1.0 | 0.00 | 0.00 | 0.11 | 98 | 1015.6 |
| 20260905061525 | 51 | 225 | 1.0 | 1.0 | 0.00 | 0.00 | 0.11 | 98 | 1015.7 |
| 20260905061024 | 51 | 225 | 0.0 | 0.0 | 0.00 | 0.00 | 0.11 | 99 | 1015.7 |
| 20260905060324 | 51 | 225 | 0.0 | 1.0 | 0.00 | 0.00 | 0.11 | 99 | 1015.7 |
| 20260905055824 | 51 | 225 | 0.0 | 1.0 | 0.00 | 0.00 | 0.11 | 99 | 1015.7 |
| 20260905055324 | 51 | 225 | 0.0 | 1.0 | 0.00 | 0.00 | 0.11 | 98 | 1015.7 |
| 20260905054824 | 51 | 225 | 1.0 | 1.0 | 0.00 | 0.00 | 0.11 | 99 | 1015.6 |
| 20260905054324 | 52 | 225 | 0.0 | 1.0 | 0.00 | 0.00 | 0.11 | 98 | 1015.6 |
| 20260905053824 | 52 | 225 | 0.0 | 1.0 | 0.00 | 0.00 | 0.11 | 98 | 1015.7 |
| 20260905053324 | 52 | 225 | 1.0 | 2.0 | 0.00 | 0.00 | 0.11 | 99 | 1015.7 |
| 20260905052824 | 52 | 225 | 1.0 | 2.0 | 0.00 | 0.00 | 0.11 | 99 | 1015.7 |
| 20260905052324 | 52 | 225 | 2.0 | 2.0 | 0.00 | 0.00 | 0.11 | 99 | 1015.7 |
| 20260905051824 | 52 | 225 | 0.0 | 2.0 | 0.00 | 0.00 | 0.11 | 99 | 1015.6 |
| 20260905051324 | 52 | 225 | 1.0 | 2.0 | 0.00 | 0.00 | 0.11 | 99 | 1015.7 |
| 20260905050825 | 52 | 225 | 2.0 | 2.0 | 0.00 | 0.00 | 0.11 | 99 | 1015.7 |
| 20260905050324 | 52 | 225 | 1.0 | 1.0 | 0.00 | 0.00 | 0.11 | 99 | 1015.6 |
| 20260905045824 | 52 | 225 | 0.0 | 1.0 | 0.00 | 0.00 | 0.11 | 99 | 1015.5 |
| 20260905045125 | 52 | 225 | 0.0 | 1.0 | 0.00 | 0.00 | 0.11 | 98 | 1015.3 |
| 20260905044624 | 52 | 225 | 1.0 | 2.0 | 0.00 | 0.00 | 0.11 | 98 | 1015.3 |
| 20260905043525 | 52 | 225 | 1.0 | 1.0 | 0.00 | 0.00 | 0.11 | 98 | 1015.3 |
| 20260905043024 | 52 | 225 | 0.0 | 1.0 | 0.00 | 0.00 | 0.11 | 98 | 1015.2 |
| 20260905042525 | 51 | 225 | 1.0 | 1.0 | 0.00 | 0.00 | 0.11 | 98 | 1015.2 |
| 20260905042024 | 51 | 225 | 0.0 | 1.0 | 0.00 | 0.00 | 0.11 | 97 | 1015.2 |
| 20260905041324 | 51 | 225 | 0.0 | 2.0 | 0.00 | 0.00 | 0.11 | 97 | 1015.2 |
| 20260905040624 | 52 | 225 | 1.0 | 2.0 | 0.00 | 0.00 | 0.11 | 97 | 1015.2 |
| 20260905040124 | 52 | 225 | 1.0 | 1.0 | 0.00 | 0.00 | 0.11 | 97 | 1015.2 |
| 20260905035624 | 52 | 225 | 0.0 | 1.0 | 0.00 | 0.00 | 0.11 | 97 | 1015.2 |
| 20260905035125 | 52 | 225 | 0.0 | 2.0 | 0.00 | 0.00 | 0.11 | 97 | 1015.1 |
| 20260905034624 | 53 | 225 | 0.0 | 2.0 | 0.00 | 0.00 | 0.11 | 97 | 1014.9 |
| 20260905033924 | 53 | 225 | 2.0 | 2.0 | 0.00 | 0.00 | 0.11 | 96 | 1015.0 |
| 20260905033424 | 53 | 225 | 0.0 | 2.0 | 0.00 | 0.00 | 0.11 | 96 | 1014.9 |
| 20260905032925 | 54 | 225 | 2.0 | 2.0 | 0.00 | 0.00 | 0.11 | 97 | 1014.8 |
| 20260905032425 | 54 | 225 | 1.0 | 2.0 | 0.00 | 0.00 | 0.11 | 96 | 1014.8 |
| 20260905031925 | 54 | 225 | 2.0 | 2.0 | 0.00 | 0.00 | 0.11 | 96 | 1014.8 |
| 20260905031425 | 55 | 225 | 0.0 | 2.0 | 0.00 | 0.00 | 0.11 | 96 | 1014.7 |
| 20260905030924 | 55 | 225 | 1.0 | 2.0 | 0.00 | 0.00 | 0.11 | 96 | 1014.6 |
| 20260905030424 | 55 | 225 | 2.0 | 2.0 | 0.00 | 0.00 | 0.11 | 96 | 1014.5 |
| 20260905025925 | 55 | 225 | 1.0 | 1.0 | 0.00 | 0.00 | 0.11 | 96 | 1014.4 |
| 20260905025425 | 55 | 225 | 0.0 | 0.0 | 0.00 | 0.00 | 0.11 | 95 | 1014.4 |
| 20260905024925 | 56 | 225 | 0.0 | 1.0 | 0.00 | 0.00 | 0.11 | 95 | 1014.4 |
| 20260905024424 | 56 | 225 | 0.0 | 1.0 | 0.00 | 0.00 | 0.11 | 95 | 1014.4 |
| 20260905023924 | 56 | 225 | 0.0 | 1.0 | 0.00 | 0.00 | 0.11 | 94 | 1014.3 |
| 20260905023425 | 57 | 225 | 1.0 | 2.0 | 0.00 | 0.00 | 0.11 | 94 | 1014.3 |
| 20260905022725 | 58 | 225 | 0.0 | 2.0 | 0.00 | 0.00 | 0.11 | 93 | 1014.3 |
| 20260905022224 | 58 | 225 | 2.0 | 2.0 | 0.00 | 0.00 | 0.11 | 93 | 1014.2 |
| 20260905021724 | 59 | 225 | 0.0 | 1.0 | 0.00 | 0.00 | 0.11 | 93 | 1014.3 |
| 20260905021025 | 60 | 225 | 0.0 | 1.0 | 0.00 | 0.00 | 0.11 | 92 | 1014.3 |
| 20260905020524 | 60 | 225 | 0.0 | 1.0 | 0.00 | 0.00 | 0.11 | 92 | 1014.2 |
| 20260905020025 | 61 | 225 | 1.0 | 1.0 | 0.00 | 0.00 | 0.11 | 92 | 1014.1 |
| 20260905015324 | 61 | 225 | 1.0 | 2.0 | 0.00 | 0.00 | 0.11 | 91 | 1014.0 |
| 20260905014224 | 62 | 225 | 1.0 | 2.0 | 0.00 | 0.00 | 0.11 | 90 | 1014.1 |
| 20260905013725 | 62 | 225 | 0.0 | 3.0 | 0.00 | 0.00 | 0.11 | 90 | 1014.1 |
| 20260905013225 | 63 | 225 | 2.0 | 3.0 | 0.00 | 0.00 | 0.11 | 90 | 1013.9 |
| 20260905012724 | 62 | 249 | 1.0 | 1.0 | 0.00 | 0.00 | 0.11 | 92 | 1014.0 |
| 20260905012125 | 61 | 249 | 1.0 | 3.0 | 0.00 | 0.00 | 0.11 | 94 | 1014.0 |
| 20260905011424 | 61 | 249 | 1.0 | 3.0 | 0.00 | 0.00 | 0.11 | 95 | 1014.0 |
| 20260905010924 | 60 | 252 | 1.0 | 3.0 | 0.00 | 0.00 | 0.11 | 95 | 1014.0 |
| 20260905010424 | 60 | 260 | 1.0 | 2.0 | 0.00 | 0.00 | 0.11 | 96 | 1014.0 |
| 20260905005924 | 60 | 260 | 2.0 | 2.0 | 0.00 | 0.00 | 0.11 | 96 | 1013.9 |
| 20260905005424 | 59 | 21 | 1.0 | 1.0 | 0.00 | 0.00 | 0.11 | 96 | 1013.9 |
| 20260905004724 | 59 | 21 | 1.0 | 1.0 | 0.00 | 0.00 | 0.11 | 96 | 1013.9 |
| 20260905004224 | 58 | 21 | 1.0 | 1.0 | 0.00 | 0.00 | 0.11 | 97 | 1013.9 |
| 20260905003725 | 58 | 21 | 1.0 | 4.0 | 0.00 | 0.00 | 0.11 | 96 | 1013.9 |
| 20260905003224 | 58 | 23 | 1.0 | 4.0 | 0.00 | 0.00 | 0.11 | 97 | 1013.9 |
| 20260905002724 | 58 | 9 | 4.0 | 4.0 | 0.00 | 0.00 | 0.11 | 96 | 1013.9 |
| 20260905002224 | 58 | 237 | 1.0 | 2.0 | 0.00 | 0.00 | 0.11 | 96 | 1013.9 |
| 20260905001724 | 58 | 237 | 2.0 | 2.0 | 0.00 | 0.00 | 0.11 | 95 | 1013.8 |
| 20260905001224 | 58 | 234 | 1.0 | 3.0 | 0.00 | 0.00 | 0.11 | 95 | 1013.7 |
| 20260905000725 | 58 | 234 | 2.0 | 3.0 | 0.00 | 0.00 | 0.11 | 94 | 1013.7 |
| 20260905000226 | 58 | 254 | 1.0 | 2.0 | 0.00 | 0.00 | 0.11 | 94 | 1013.7 |
| 20260904235724 | 58 | 12 | 1.0 | 2.0 | 0.00 | 0.00 | 0.11 | 93 | 1013.7 |
| 20260904235224 | 58 | 12 | 0.0 | 2.0 | 0.00 | 0.00 | 0.11 | 93 | 1013.7 |
| 20260904234525 | 59 | 12 | 2.0 | 3.0 | 0.00 | 0.00 | 0.11 | 91 | 1013.6 |
| 20260904234025 | 59 | 13 | 1.0 | 3.0 | 0.00 | 0.00 | 0.11 | 90 | 1013.5 |
| 20260904233524 | 59 | 248 | 1.0 | 3.0 | 0.00 | 0.00 | 0.11 | 88 | 1013.5 |
| 20260904233025 | 60 | 281 | 2.0 | 4.0 | 0.00 | 0.00 | 0.10 | 87 | 1013.5 |
| 20260904232524 | 61 | 321 | 2.0 | 4.0 | 0.00 | 0.00 | 0.05 | 84 | 1013.5 |
| 20260904232024 | 61 | 213 | 0.0 | 4.0 | 0.00 | 0.00 | 0.04 | 89 | 1013.3 |
| 20260904231524 | 61 | 213 | 1.0 | 4.0 | 0.00 | 0.00 | 0.04 | 88 | 1013.3 |
| 20260904231024 | 61 | 263 | 4.0 | 4.0 | 0.00 | 0.00 | 0.04 | 85 | 1013.2 |
| 20260904230524 | 61 | 178 | 0.0 | 2.0 | 0.00 | 0.00 | 0.04 | 87 | 1013.2 |
| 20260904230024 | 61 | 178 | 1.0 | 2.0 | 0.00 | 0.00 | 0.04 | 87 | 1013.1 |
| 20260904225324 | 62 | 177 | 0.0 | 2.0 | 0.00 | 0.00 | 0.04 | 82 | 1013.0 |
| 20260904224824 | 64 | 117 | 0.0 | 8.0 | 0.00 | 0.00 | 0.04 | 77 | 1013.1 |
| 20260904224324 | 65 | 116 | 2.0 | 8.0 | 0.00 | 0.00 | 0.03 | 76 | 1013.1 |
| 20260904223024 | 66 | 360 | 0.0 | 2.0 | 0.00 | 0.00 | 0.00 | 79 | 1012.8 |
| 20260904222524 | 66 | 360 | 1.0 | 2.0 | 0.00 | 0.00 | 0.00 | 77 | 1012.7 |
| 20260904222024 | 66 | 38 | 2.0 | 2.0 | 0.00 | 0.00 | 0.00 | 74 | 1012.8 |
| 20260904221524 | 66 | 360 | 0.0 | 2.0 | 0.00 | 0.00 | 0.00 | 73 | 1012.7 |
| 20260904221024 | 66 | 32 | 1.0 | 5.0 | 0.00 | 0.00 | 0.00 | 69 | 1012.7 |
| 20260904220524 | 66 | 355 | 2.0 | 5.0 | 0.00 | 0.00 | 0.00 | 66 | 1012.7 |
| 20260904220025 | 67 | 26 | 5.0 | 5.0 | 0.00 | 0.00 | 0.00 | 67 | 1012.7 |
| 20260904215524 | 67 | 77 | 3.0 | 5.0 | 0.00 | 0.00 | 0.00 | 69 | 1012.7 |
| 20260904214825 | 67 | 41 | 5.0 | 5.0 | 0.00 | 0.00 | 0.00 | 67 | 1012.7 |
| 20260904214325 | 67 | 13 | 5.0 | 5.0 | 0.00 | 0.00 | 0.00 | 65 | 1012.7 |
| 20260904213824 | 67 | 360 | 2.0 | 3.0 | 0.00 | 0.00 | 0.00 | 69 | 1012.7 |
| 20260904213324 | 66 | 85 | 2.0 | 3.0 | 0.00 | 0.00 | 0.00 | 68 | 1012.7 |
| 20260904212824 | 66 | 360 | 2.0 | 3.0 | 0.00 | 0.00 | 0.00 | 68 | 1012.7 |
| 20260904212324 | 66 | 109 | 0.0 | 2.0 | 0.00 | 0.00 | 0.00 | 72 | 1012.6 |
| 20260904211824 | 66 | 53 | 2.0 | 3.0 | 0.00 | 0.00 | 0.00 | 69 | 1012.6 |
| 20260904211324 | 65 | 142 | 0.0 | 5.0 | 0.00 | 0.00 | 0.00 | 70 | 1012.6 |
| 20260904210825 | 65 | 140 | 1.0 | 5.0 | 0.00 | 0.00 | 0.00 | 71 | 1012.6 |
| 20260904210324 | 65 | 51 | 3.0 | 3.0 | 0.00 | 0.00 | 0.00 | 68 | 1012.6 |
| 20260904205824 | 65 | 302 | 1.0 | 4.0 | 0.00 | 0.00 | 0.00 | 67 | 1012.6 |
| 20260904205324 | 65 | 319 | 2.0 | 5.0 | 0.00 | 0.00 | 0.00 | 66 | 1012.6 |
| 20260904204825 | 65 | 12 | 3.0 | 5.0 | 0.00 | 0.00 | 0.00 | 69 | 1012.5 |
| 20260904203925 | 65 | 339 | 3.0 | 8.0 | 0.00 | 0.00 | 0.00 | 69 | 1012.5 |
| 20260904203425 | 65 | 360 | 4.0 | 8.0 | 0.00 | 0.00 | 0.00 | 69 | 1012.4 |
| 20260904202925 | 66 | 360 | 8.0 | 8.0 | 0.00 | 0.00 | 0.00 | 69 | 1012.4 |
| 20260904202425 | 65 | 309 | 5.0 | 5.0 | 0.00 | 0.00 | 0.00 | 69 | 1012.3 |
| 20260904201924 | 64 | 5 | 2.0 | 5.0 | 0.00 | 0.00 | 0.00 | 71 | 1012.3 |
| 20260904201424 | 64 | 351 | 3.0 | 3.0 | 0.00 | 0.00 | 0.00 | 72 | 1012.5 |
| 20260904200924 | 64 | 59 | 3.0 | 9.0 | 0.00 | 0.00 | 0.00 | 74 | 1012.5 |
| 20260904200224 | 64 | 24 | 5.0 | 9.0 | 0.00 | 0.00 | 0.00 | 71 | 1012.5 |
| 20260904195724 | 64 | 9 | 7.0 | 7.0 | 0.00 | 0.00 | 0.00 | 70 | 1012.5 |
| 20260904195224 | 64 | 49 | 4.0 | 9.0 | 0.00 | 0.00 | 0.00 | 71 | 1012.5 |
| 20260904194724 | 64 | 76 | 3.0 | 9.0 | 0.00 | 0.00 | 0.00 | 70 | 1012.7 |
| 20260904194224 | 64 | 21 | 9.0 | 9.0 | 0.00 | 0.00 | 0.00 | 71 | 1012.7 |
| 20260904193724 | 64 | 287 | 2.0 | 7.0 | 0.00 | 0.00 | 0.00 | 71 | 1012.7 |
| 20260904193225 | 64 | 9 | 5.0 | 7.0 | 0.00 | 0.00 | 0.00 | 71 | 1012.7 |
| 20260904192725 | 64 | 26 | 6.0 | 9.0 | 0.00 | 0.00 | 0.00 | 73 | 1012.7 |
| 20260904192225 | 64 | 32 | 5.0 | 9.0 | 0.00 | 0.00 | 0.00 | 72 | 1012.7 |
| 20260904191724 | 64 | 28 | 4.0 | 8.0 | 0.00 | 0.00 | 0.00 | 74 | 1012.7 |